Location: Newark
(12.4436°N, 0.6167°W)
Time: 23:18:03
(UTC+00:00)

Vanguard 2 - Pass Details

Date: 09 December 2019
Orbit: 553 x 2938 km, 32.9° (Epoch: 19 January)

Event Time Altitude Azimuth Distance (km) Brightness Sun altitude
Rises 21:06:39 0° 203° (SSW) 4,086 11.6 -48.8°
Reaches altitude 10° 21:09:33 10° 191° (SSW) 3,427 11.0 -49.4°
Enters shadow 21:10:32 14° 186° (S) 3,249 10.8 -49.6°
Maximum altitude 21:17:13 29° 134° (SE) 2,947 - -51.2°
Drops below altitude 10° 21:28:22 10° 81° (E) 5,094 - -53.7°
Sets 21:33:48 0° 72° (ENE) 6,421 - -54.9°
